Time,TemperatureF,DewpointF,PressureIn,WindDirection,WindDirectionDegrees,WindSpeedMPH,WindSpeedGustMPH,Humidity,HourlyPrecipIn,Conditions,Clouds,dailyrainin,SoftwareType,DateUTC
2013-09-08 00:06:00,74.4,71.0,29.97,NNW,339,0.0,0.0,88,0.00,,,0.00,weatherlink.com 1.10,2013-09-08 04:06:00,
2013-09-08 00:21:00,74.5,71.0,29.98,NNW,337,0.0,0.0,89,0.00,,,0.00,weatherlink.com 1.10,2013-09-08 04:21:00,
2013-09-08 00:36:00,75.1,72.0,29.97,NNW,337,0.0,0.0,90,0.00,,,0.00,weatherlink.com 1.10,2013-09-08 04:36:00,
2013-09-08 00:51:00,75.4,72.0,29.97,NNW,338,0.0,0.0,90,0.00,,,0.00,weatherlink.com 1.10,2013-09-08 04:51:00,
2013-09-08 01:06:00,75.4,73.0,29.97,NNW,338,0.0,0.0,91,0.00,,,0.00,weatherlink.com 1.10,2013-09-08 05:06:00,
2013-09-08 01:21:00,75.3,73.0,29.96,NNW,339,0.0,1.0,92,0.00,,,0.00,weatherlink.com 1.10,2013-09-08 05:21:00,
2013-09-08 01:36:00,75.5,73.0,29.97,NNW,339,0.0,0.0,92,0.00,,,0.00,weatherlink.com 1.10,2013-09-08 05:36:00,
2013-09-08 01:51:00,75.4,73.0,29.97,NNW,339,0.0,1.0,93,0.00,,,0.00,weatherlink.com 1.10,2013-09-08 05:51:00,
2013-09-08 02:06:00,75.7,74.0,29.97,NNW,339,0.0,0.0,93,0.00,,,0.00,weatherlink.com 1.10,2013-09-08 06:06:00,
2013-09-08 02:21:00,75.5,73.0,29.97,NNW,338,0.0,0.0,93,0.00,,,0.00,weatherlink.com 1.10,2013-09-08 06:21:00,
2013-09-08 02:36:00,75.3,73.0,29.96,NNW,340,0.0,1.0,93,0.00,,,0.00,weatherlink.com 1.10,2013-09-08 06:36:00,
2013-09-08 02:51:00,75.5,73.0,29.96,East,82,0.0,0.0,92,0.00,,,0.00,weatherlink.com 1.10,2013-09-08 06:51:00,
2013-09-08 03:06:00,75.0,73.0,29.96,East,82,0.0,0.0,92,0.00,,,0.00,weatherlink.com 1.10,2013-09-08 07:06:00,
2013-09-08 03:21:00,74.8,73.0,29.96,East,82,0.0,0.0,93,0.00,,,0.00,weatherlink.com 1.10,2013-09-08 07:21:00,
2013-09-08 03:36:00,75.1,73.0,29.95,NNE,32,0.0,1.0,92,0.00,,,0.00,weatherlink.com 1.10,2013-09-08 07:36:00,
2013-09-08 03:51:00,75.3,73.0,29.95,ENE,63,0.0,1.0,91,0.00,,,0.00,weatherlink.com 1.10,2013-09-08 07:51:00,
2013-09-08 04:06:00,75.5,73.0,29.95,North,358,0.0,2.0,90,0.00,,,0.00,weatherlink.com 1.10,2013-09-08 08:06:00,
2013-09-08 04:21:00,75.5,73.0,29.95,NE,53,0.0,0.0,90,0.00,,,0.00,weatherlink.com 1.10,2013-09-08 08:21:00,
2013-09-08 04:36:00,75.3,72.0,29.95,NE,41,0.0,4.0,90,0.00,,,0.00,weatherlink.com 1.10,2013-09-08 08:36:00,
2013-09-08 04:51:00,75.5,73.0,29.95,NE,39,0.0,3.0,90,0.00,,,0.00,weatherlink.com 1.10,2013-09-08 08:51:00,
2013-09-08 05:06:00,75.6,73.0,29.94,NE,43,1.0,3.0,90,0.00,,,0.00,weatherlink.com 1.10,2013-09-08 09:06:00,
2013-09-08 05:21:00,75.5,73.0,29.95,NNE,15,0.0,1.0,90,0.00,,,0.00,weatherlink.com 1.10,2013-09-08 09:21:00,
2013-09-08 05:36:00,75.0,72.0,29.95,NNE,15,0.0,1.0,91,0.00,,,0.00,weatherlink.com 1.10,2013-09-08 09:36:00,
2013-09-08 05:51:00,74.7,72.0,29.95,ENE,63,1.0,1.0,92,0.00,,,0.00,weatherlink.com 1.10,2013-09-08 09:51:00,
2013-09-08 06:06:00,75.0,73.0,29.95,NE,39,0.0,1.0,92,0.00,,,0.00,weatherlink.com 1.10,2013-09-08 10:06:00,
2013-09-08 06:21:00,74.8,72.0,29.95,NNE,19,0.0,1.0,92,0.00,,,0.00,weatherlink.com 1.10,2013-09-08 10:21:00,
2013-09-08 06:36:00,74.8,72.0,29.95,NNE,29,0.0,0.0,92,0.00,,,0.00,weatherlink.com 1.10,2013-09-08 10:36:00,
2013-09-08 06:51:00,74.3,72.0,29.95,ENE,60,0.0,0.0,92,0.00,,,0.00,weatherlink.com 1.10,2013-09-08 10:51:00,
2013-09-08 07:06:00,74.0,72.0,29.95,ENE,61,0.0,0.0,93,0.00,,,0.00,weatherlink.com 1.10,2013-09-08 11:06:00,
2013-09-08 07:21:00,73.9,72.0,29.96,NE,43,0.0,2.0,94,0.00,,,0.00,weatherlink.com 1.10,2013-09-08 11:21:00,
2013-09-08 07:36:00,74.3,73.0,29.95,NNW,345,0.0,1.0,94,0.00,,,0.00,weatherlink.com 1.10,2013-09-08 11:36:00,
2013-09-08 07:51:00,75.0,73.0,29.96,NNW,345,1.0,1.0,93,0.00,,,0.00,weatherlink.com 1.10,2013-09-08 11:51:00,
2013-09-08 08:06:00,76.2,74.0,29.96,NNE,26,2.0,3.0,91,0.00,,,0.00,weatherlink.com 1.10,2013-09-08 12:06:00,
2013-09-08 08:21:00,77.2,74.0,29.96,NNW,332,1.0,4.0,88,0.00,,,0.00,weatherlink.com 1.10,2013-09-08 12:21:00,
2013-09-08 08:36:00,77.8,74.0,29.97,ENE,58,2.0,6.0,87,0.00,,,0.00,weatherlink.com 1.10,2013-09-08 12:36:00,
2013-09-08 08:51:00,78.7,74.0,29.97,North,1,4.0,5.0,86,0.00,,,0.00,weatherlink.com 1.10,2013-09-08 12:51:00,
2013-09-08 09:07:00,79.2,74.0,29.98,ENE,68,4.0,6.0,83,0.00,,,0.00,weatherlink.com 1.10,2013-09-08 13:07:00,
2013-09-08 09:22:00,79.5,74.0,29.98,SSE,149,0.0,6.0,84,0.00,,,0.00,weatherlink.com 1.10,2013-09-08 13:22:00,
2013-09-08 09:37:00,79.9,74.0,29.98,NNE,18,4.0,6.0,82,0.00,,,0.00,weatherlink.com 1.10,2013-09-08 13:37:00,
2013-09-08 09:52:00,80.5,75.0,29.98,NNE,20,1.0,7.0,82,0.00,,,0.00,weatherlink.com 1.10,2013-09-08 13:52:00,
2013-09-08 10:07:00,81.3,75.0,29.98,NE,49,2.0,5.0,80,0.00,,,0.00,weatherlink.com 1.10,2013-09-08 14:07:00,
2013-09-08 10:22:00,82.1,75.0,29.98,North,352,2.0,7.0,79,0.00,,,0.00,weatherlink.com 1.10,2013-09-08 14:22:00,
2013-09-08 10:37:00,83.1,75.0,29.98,ENE,65,2.0,7.0,77,0.00,,,0.00,weatherlink.com 1.10,2013-09-08 14:37:00,
2013-09-08 10:52:00,83.5,75.0,29.99,NE,44,2.0,6.0,75,0.00,,,0.00,weatherlink.com 1.10,2013-09-08 14:52:00,
2013-09-08 11:07:00,84.2,76.0,29.98,NE,47,2.0,6.0,76,0.00,,,0.00,weatherlink.com 1.10,2013-09-08 15:07:00,
2013-09-08 11:22:00,84.3,75.0,29.98,North,6,0.0,7.0,74,0.00,,,0.00,weatherlink.com 1.10,2013-09-08 15:22:00,
2013-09-08 11:37:00,84.1,75.0,29.98,NE,36,1.0,6.0,73,0.00,,,0.00,weatherlink.com 1.10,2013-09-08 15:37:00,
2013-09-08 11:52:00,84.2,74.0,29.98,North,359,7.0,7.0,72,0.00,,,0.00,weatherlink.com 1.10,2013-09-08 15:52:00,
2013-09-08 12:07:00,85.6,74.0,29.98,NNE,20,5.0,9.0,68,0.00,,,0.00,weatherlink.com 1.10,2013-09-08 16:07:00,
2013-09-08 12:22:00,85.6,73.0,29.97,WSW,246,1.0,9.0,67,0.00,,,0.00,weatherlink.com 1.10,2013-09-08 16:22:00,
2013-09-08 12:37:00,86.9,74.0,29.97,ESE,117,2.0,6.0,66,0.00,,,0.00,weatherlink.com 1.10,2013-09-08 16:37:00,
2013-09-08 12:52:00,86.3,73.0,29.96,ENE,68,0.0,9.0,65,0.00,,,0.00,weatherlink.com 1.10,2013-09-08 16:52:00,
2013-09-08 13:07:00,87.7,74.0,29.96,North,5,0.0,8.0,64,0.00,,,0.00,weatherlink.com 1.10,2013-09-08 17:07:00,
2013-09-08 13:22:00,87.8,73.0,29.96,SE,125,3.0,6.0,62,0.00,,,0.00,weatherlink.com 1.10,2013-09-08 17:22:00,
2013-09-08 13:37:00,88.4,74.0,29.96,NNW,344,0.0,5.0,62,0.00,,,0.00,weatherlink.com 1.10,2013-09-08 17:37:00,
2013-09-08 13:52:00,89.4,74.0,29.95,NW,320,1.0,6.0,60,0.00,,,0.00,weatherlink.com 1.10,2013-09-08 17:52:00,
2013-09-08 14:07:00,88.8,74.0,29.94,NE,49,0.0,6.0,62,0.00,,,0.00,weatherlink.com 1.10,2013-09-08 18:07:00,
2013-09-08 14:22:00,89.4,74.0,29.94,SE,134,0.0,6.0,61,0.00,,,0.00,weatherlink.com 1.10,2013-09-08 18:22:00,
2013-09-08 14:37:00,90.3,74.0,29.93,East,101,4.0,6.0,58,0.00,,,0.00,weatherlink.com 1.10,2013-09-08 18:37:00,
2013-09-08 14:52:00,90.6,74.0,29.92,SSE,153,0.0,4.0,59,0.00,,,0.00,weatherlink.com 1.10,2013-09-08 18:52:00,
2013-09-08 15:07:00,89.0,72.0,29.92,ENE,58,0.0,4.0,57,0.00,,,0.00,weatherlink.com 1.10,2013-09-08 19:07:00,
2013-09-08 15:23:00,89.7,73.0,29.91,West,278,0.0,7.0,58,0.00,,,0.00,weatherlink.com 1.10,2013-09-08 19:23:00,
2013-09-08 15:38:00,89.9,72.0,29.91,ENE,70,1.0,5.0,56,0.00,,,0.00,weatherlink.com 1.10,2013-09-08 19:38:00,
2013-09-08 15:53:00,90.4,72.0,29.90,NE,49,1.0,6.0,55,0.00,,,0.00,weatherlink.com 1.10,2013-09-08 19:53:00,
2013-09-08 16:08:00,90.3,71.0,29.90,SSE,160,1.0,4.0,53,0.00,,,0.00,weatherlink.com 1.10,2013-09-08 20:08:00,
2013-09-08 16:23:00,90.3,72.0,29.89,NNE,25,0.0,8.0,55,0.00,,,0.00,weatherlink.com 1.10,2013-09-08 20:23:00,
2013-09-08 16:38:00,89.6,70.0,29.89,ENE,65,0.0,5.0,53,0.00,,,0.00,weatherlink.com 1.10,2013-09-08 20:38:00,
2013-09-08 16:53:00,89.5,71.0,29.89,North,357,3.0,6.0,54,0.00,,,0.00,weatherlink.com 1.10,2013-09-08 20:53:00,
2013-09-08 17:08:00,89.0,70.0,29.89,ENE,65,2.0,5.0,54,0.00,,,0.00,weatherlink.com 1.10,2013-09-08 21:08:00,
2013-09-08 17:23:00,89.8,70.0,29.88,NW,315,1.0,5.0,53,0.00,,,0.00,weatherlink.com 1.10,2013-09-08 21:23:00,
2013-09-08 17:38:00,89.2,71.0,29.88,SSW,205,0.0,7.0,55,0.02,,,0.02,weatherlink.com 1.10,2013-09-08 21:38:00,